STARLINK-33954

Last updated on Thu Jun 05 2025 00:02:04 GMT+0000 (Coordinated Universal Time)

1 63863U 25093AD 25155.58335648 -.01593160 00000+0 -39343-1 0 9994 2 63863 42.9994 209.7281 0001625 274.0928 132.3061 15.42985652 5198

Satellite not in orbit